User: anonymous   Login
Location: Nashville
(36.1660°N, 86.7840°W)
Time: 12:43:54
(UTC-05:00)
Language:

AO-85 - Orbit

View from above orbital plane
View from above orbital plane
View from above satellite
View from above satellite

Ground track
Ground track

The orbit data is extracted from the following two-line orbital elements,

1 40967U 15058D   22124.45090795  .00004164  00000-0  43596-3 0  3567
2 40967  64.7752 205.9624 0200514 214.2079 144.5815 14.77269488 54164
Epoch (UTC): 04 May 2022 10:49:18
Eccentricity: 0.0200514
inclination: 64.7752°
perigee height: 497 km
apogee height: 778 km
right ascension of ascending node: 205.9624°
argument of perigee: 214.2079°
revolutions per day: 14.77269488
mean anomaly at epoch: 144.5815°
orbit number at epoch: 5416

The dashed part of the orbit path shows where the satellite is in the earth's shadow,  

DLR